Showing default

DRAGON CRS-34, 69103

Orbit data source: Space-Track

DRAGON CRS-34, 69103 is a payload satellite owned by SpaceX (US) in LEO that was launched on Fri, 15 May 2026 UTC via an FALCON 9 launch vehicle from the Air Force Eastern Test Range (AFETR). Payload-class satellites include a variety of spacecraft equipped with specific instruments for various scientific and technological missions. These include communications satellites like Starlink; space stations such as the ISS; scientific satellites like the Hubble; Earth observation satellites from companies like Planet Labs, Umbra, and HawkEye 360; GPS; miniature CubeSats for education and research; and military/defense satellites.

Loading next visibility...
Identifier
69103, 2026-107A
Orbit
LEO
Country
Flag of USUS
Related business
Manufacturer
SpaceX
Mission
Operational spacecraft
Bus & Motor
DRAGON CM, Unknown motor
Mass
~15,248 kg wet, ~9,000 kg dry
Launch date (UTC)
2026-05-15 (1 month ago)
Launch vehicle
FALCON 9
Launch site
Air Force Eastern Test Range (AFETR)
Object type
Payload
Rocket body
Debris
Shape & HBR
Unknown shape, 14.5 m
Radar Cross Section
Large (>1 m²)

Expand to show TLE details & history
Last TLE update: 2 days ago

TLE from 2 days ago
0 DRAGON CRS-34
1 69103U 26107A   26167.47994787  .00006936  00000-0  13276-3 0  9998
2 69103  51.6336 303.5935 0004796 192.9278 167.1588 15.49257994571674
Epoch: 2026-06-16T11:31Z
TLE epoch observation values (Epoch: 2026-06-16T11:31:07.495Z)
Latitude
-0.00007°
Longitude
-133.93917°
Altitude
422.814 km
Speed
7.657 km/s
True Right ascension
20h 14m 22s
True Declination
0° 00' 00"
Sunlit
Object was in full shadow at epoch
Visualization orbit readout
Latitude
Unknown
Longitude
Unknown
Altitude
Unknown
Speed
Unknown
Apparent Right ascension
Unknown
Apparent Declination
Unknown
Sunlit
N/A
Visualization observer readout
Local Sidereal Time
13:01:37
Azimuth
Unknown
Elevation
Unknown
Doppler factor
Unknown
Orbital elements
Apogee altitude
422.664 km
Perigee altitude
416.144 km
Semi-major axis
6,797.541 km
Eccentricity
0.00048
Inclination
51.6336°
RAAN
303.5935°
Arg. of periapsis
192.9278°
True anomaly
167.17101°
Mean anomaly
167.1588°
Eccentric anomaly
167.1649°
Mean motion
3.87271 °/min
Orbital period
92.96 mins
BSTAR
0.00013276
Loading maneuver chart data...
Computing Atmospheric mass density...
Loading historical data...
Loading historical data...
Loading historical data...
Loading historical data...
Loading historical data...
Loading historical data...
Loading historical data...
Other satellites on launch #107 in the year 2026 (2026-05-15 UTC)

Documentation

Showing up to 5 results
|